�N����,����,�~����,�C��,���x,�C��,����,���ϕ���,�ő�u�ԕ���,�ő厞����,���˗�,�I�_���x,�n�����x,�ő啗���N��,DTYPE
"17/01/07","00:10",0.0,0.5,92.0,1016.8,308.8,2.3,3.2,310.8,0.00,-0.6,5.8,"00:01:12",1
"17/01/07","00:20",0.0,0.1,91.7,1017.1,294.0,0.7,2.4,314.3,0.00,-1.0,5.5,"00:10:08",1
"17/01/07","00:30",0.0,0.0,92.6,1016.8,340.4,1.1,2.7,338.6,0.00,-1.0,5.6,"00:27:12",1
"17/01/07","00:40",0.0,-0.2,92.5,1016.6,330.5,1.8,2.5,317.8,0.00,-1.2,5.5,"00:35:36",1
"17/01/07","00:50",0.0,-0.4,93.6,1016.6,322.3,1.8,2.9,337.6,0.00,-1.3,5.6,"00:40:48",1
"17/01/07","01:00",0.0,-0.2,94.6,1016.6,311.6,1.7,3.1,315.4,0.00,-0.9,5.4,"00:59:36",1
"17/01/07","01:10",0.0,0.1,94.2,1016.4,307.0,1.8,2.9,309.7,0.00,-0.7,5.5,"01:01:28",1
"17/01/07","01:20",0.0,-0.3,93.5,1016.4,196.2,0.7,1.3,286.1,0.00,-1.2,5.3,"01:10:56",1
"17/01/07","01:30",0.0,-0.6,93.9,1016.6,268.4,0.5,1.2,267.5,0.00,-1.4,5.3,"01:25:12",1
"17/01/07","01:40",0.0,-0.8,94.5,1016.6,273.1,0.2,0.9,292.2,0.00,-1.5,5.1,"01:36:56",1
"17/01/07","01:50",0.0,-0.9,94.9,1016.6,322.2,1.2,2.4,337.5,0.00,-1.6,5.1,"01:44:00",1
"17/01/07","02:00",0.0,-1.2,95.4,1016.6,316.2,1.0,1.3,325.6,0.00,-1.8,5.2,"01:53:20",1
"17/01/07","02:10",0.0,-1.2,96.1,1016.6,307.5,1.0,1.3,319.5,0.00,-1.7,5.2,"02:04:02",1
"17/01/07","02:20",0.0,-1.4,96.1,1016.6,324.5,1.2,1.8,311.1,0.00,-1.9,5.1,"02:15:44",1
"17/01/07","02:30",0.0,-1.5,96.6,1016.6,330.6,1.5,1.9,319.4,0.00,-1.9,4.9,"02:27:28",1
"17/01/07","02:40",0.0,-1.7,97.0,1016.6,315.9,1.2,1.9,337.4,0.00,-2.1,5.1,"02:30:24",1
"17/01/07","02:50",0.0,-1.8,97.5,1016.6,286.0,1.2,2.0,318.7,0.00,-2.1,5.0,"02:48:56",1
"17/01/07","03:00",0.0,-1.8,97.9,1016.6,305.8,1.1,2.0,303.2,0.00,-2.0,4.9,"02:58:48",1
"17/01/07","03:10",0.0,-1.7,98.1,1016.4,331.7,1.3,2.1,321.0,0.00,-1.9,5.0,"03:01:10",1
"17/01/07","03:20",0.0,-1.8,96.8,1016.4,301.4,1.5,2.6,316.5,0.00,-2.2,4.7,"03:11:12",1
"17/01/07","03:30",0.0,-2.0,98.1,1016.6,289.6,0.8,1.9,316.4,0.00,-2.2,4.8,"03:27:48",1
"17/01/07","03:40",0.0,-1.7,97.2,1015.9,310.3,1.6,2.2,325.2,0.00,-2.0,4.8,"03:37:38",1
"17/01/07","03:50",0.0,-2.0,98.1,1016.1,305.3,1.5,2.0,332.2,0.00,-2.2,4.6,"03:40:24",1
"17/01/07","04:00",0.0,-2.0,97.4,1015.9,295.7,1.3,2.1,315.9,0.00,-2.3,4.8,"03:59:36",1
"17/01/07","04:10",0.0,-2.1,98.5,1015.9,311.0,1.7,2.4,317.3,0.00,-2.3,4.7,"04:09:44",1
"17/01/07","04:20",0.0,-2.0,97.5,1016.1,297.0,1.6,2.4,320.1,0.00,-2.3,4.5,"04:10:16",1
"17/01/07","04:30",0.0,-2.4,98.6,1015.6,300.3,1.2,1.8,312.0,0.00,-2.5,4.5,"04:24:48",1
"17/01/07","04:40",0.0,-2.3,98.0,1015.9,311.8,1.8,2.5,323.7,0.00,-2.5,4.6,"04:38:16",1
"17/01/07","04:50",0.0,-2.2,97.9,1016.4,315.5,2.1,2.5,324.1,0.00,-2.4,4.7,"04:44:32",1
"17/01/07","05:00",0.0,-2.5,99.0,1016.1,290.9,1.3,1.7,319.4,0.00,-2.6,4.4,"04:50:16",1
"17/01/07","05:10",0.0,-2.3,98.3,1016.1,311.1,1.8,2.4,320.3,0.00,-2.5,4.2,"05:09:04",1
"17/01/07","05:20",0.0,-2.4,98.2,1016.4,309.0,1.7,2.1,314.2,0.00,-2.6,4.5,"05:18:08",1
"17/01/07","05:30",0.0,-2.2,98.2,1016.1,316.1,1.7,2.1,317.8,0.00,-2.4,4.3,"05:28:48",1
"17/01/07","05:40",0.0,-2.3,98.3,1016.6,304.4,1.7,2.1,313.7,0.00,-2.5,4.5,"05:35:36",1
"17/01/07","05:50",0.0,-2.3,98.2,1016.6,303.4,1.6,1.8,316.8,0.00,-2.5,4.2,"05:41:04",1
"17/01/07","06:00",0.0,-2.4,98.3,1016.1,306.8,1.7,2.2,319.3,0.00,-2.6,4.3,"05:58:48",1
"17/01/07","06:10",0.0,-2.2,98.5,1016.4,314.8,2.0,2.1,324.4,0.00,-2.4,4.2,"06:03:30",1
"17/01/07","06:20",0.0,-2.3,98.1,1016.6,291.8,0.8,1.8,330.7,0.00,-2.5,4.1,"06:10:48",1
"17/01/07","06:30",0.0,-2.5,98.3,1016.6,306.6,1.6,2.0,312.3,0.00,-2.7,4.1,"06:29:28",1
"17/01/07","06:40",0.0,-2.5,98.2,1016.6,311.3,1.6,2.0,325.0,0.00,-2.7,4.1,"06:30:48",1
"17/01/07","06:50",0.0,-2.6,98.4,1016.4,301.8,1.5,1.8,315.9,0.00,-2.8,4.2,"06:40:32",1
"17/01/07","07:00",0.0,-2.6,98.4,1016.4,295.6,1.5,2.1,309.1,0.00,-2.8,4.1,"06:51:28",1
"17/01/07","07:10",0.0,-2.6,98.3,1016.6,290.2,1.2,1.9,311.2,0.00,-2.8,4.1,"07:09:36",1
"17/01/07","07:20",0.0,-2.5,98.7,1016.6,315.0,2.0,2.2,320.4,0.00,-2.6,4.0,"07:16:24",1
"17/01/07","07:30",0.0,-2.2,98.8,1016.8,319.9,2.1,2.6,324.0,0.00,-2.3,3.9,"07:25:22",1
"17/01/07","07:40",0.0,-1.8,98.7,1016.6,309.5,1.5,2.2,323.8,0.00,-1.9,4.0,"07:32:52",1
"17/01/07","07:50",0.0,-1.5,99.0,1016.6,298.0,1.6,1.8,305.7,0.00,-1.6,3.9,"07:47:20",1
"17/01/07","08:00",0.0,-1.1,99.0,1016.6,280.1,0.6,1.7,316.4,0.01,-1.2,3.9,"07:59:36",1
"17/01/07","08:10",0.0,-0.4,98.8,1016.8,294.8,1.2,2.2,318.3,0.02,-0.5,4.1,"08:00:16",1
"17/01/07","08:20",0.0,0.1,98.2,1017.1,295.5,1.2,2.0,309.3,0.03,-0.1,3.8,"08:11:54",1
"17/01/07","08:30",0.0,0.7,97.0,1017.3,302.2,1.2,2.2,309.5,0.04,0.3,4.0,"08:27:20",1
"17/01/07","08:40",0.0,1.2,97.4,1017.3,295.5,1.1,1.2,292.5,0.03,0.9,4.0,"08:33:32",1
"17/01/07","08:50",0.0,1.6,94.2,1017.5,284.0,0.6,0.9,285.6,0.04,0.8,4.1,"08:40:08",1
"17/01/07","09:00",0.0,2.2,92.5,1017.8,249.3,0.5,1.0,300.0,0.05,1.2,4.2,"08:57:16",1
"17/01/07","09:10",0.0,3.0,89.9,1018.0,264.2,0.7,1.0,291.8,0.08,1.5,4.2,"09:06:58",1
"17/01/07","09:20",0.0,3.7,88.2,1018.2,296.6,0.8,1.6,309.0,0.12,2.0,4.3,"09:16:12",1
"17/01/07","09:30",0.0,4.1,84.0,1018.2,283.1,0.8,1.6,319.3,0.15,1.7,4.1,"09:28:34",1
"17/01/07","09:40",0.0,4.8,84.2,1018.7,279.7,0.7,1.9,324.5,0.20,2.4,4.5,"09:30:16",1
"17/01/07","09:50",0.0,4.9,81.0,1018.7,256.2,0.8,1.7,246.3,0.23,2.0,4.6,"09:46:24",1
"17/01/07","10:00",0.0,5.5,77.8,1018.7,273.2,0.8,1.4,254.2,0.25,2.0,4.9,"09:56:00",1
"17/01/07","10:10",0.0,5.9,75.7,1019.0,245.2,0.7,1.2,280.7,0.27,2.0,5.1,"10:00:56",1
"17/01/07","10:20",0.0,5.8,75.1,1019.2,256.7,0.8,1.6,283.3,0.24,1.8,5.4,"10:12:56",1
"17/01/07","10:30",0.0,6.4,75.3,1019.2,258.0,1.1,1.9,247.0,0.31,2.4,5.5,"10:26:08",1
"17/01/07","10:40",0.0,6.9,71.0,1019.4,252.7,1.0,2.1,129.5,0.32,2.1,5.8,"10:39:44",1
"17/01/07","10:50",0.0,7.3,69.1,1019.2,250.1,1.0,1.7,231.2,0.34,2.1,6.1,"10:40:56",1
"17/01/07","11:00",0.0,7.5,66.0,1019.2,276.2,0.8,1.8,166.0,0.35,1.6,6.3,"10:59:44",1
"17/01/07","11:10",0.0,8.0,62.9,1018.5,235.9,1.0,1.8,216.9,0.37,1.4,6.3,"11:08:00",1
"17/01/07","11:20",0.0,8.1,63.5,1018.5,238.4,1.3,3.2,156.6,0.38,1.6,6.7,"11:18:56",1
"17/01/07","11:30",0.0,8.1,63.2,1018.5,218.2,1.2,2.6,214.9,0.38,1.6,6.7,"11:23:04",1
"17/01/07","11:40",0.0,8.5,60.9,1018.2,196.8,1.3,2.6,200.7,0.41,1.4,6.9,"11:36:48",1
"17/01/07","11:50",0.0,8.7,60.2,1017.8,226.9,1.0,1.8,213.6,0.39,1.5,7.3,"11:40:48",1
"17/01/07","12:00",0.0,8.6,61.9,1017.5,152.7,1.0,2.4,124.5,0.40,1.8,7.3,"11:53:04",1
"17/01/07","12:10",0.0,9.5,58.9,1017.3,231.9,1.0,2.4,200.5,0.40,1.9,7.7,"12:08:24",1
"17/01/07","12:20",0.0,9.4,58.7,1016.8,216.4,1.3,3.5,235.3,0.41,1.8,7.9,"12:12:00",1
"17/01/07","12:30",0.0,9.8,61.4,1016.6,230.9,0.8,2.5,236.3,0.41,2.8,8.0,"12:24:56",1
"17/01/07","12:40",0.0,10.0,60.1,1016.4,240.0,1.0,2.1,161.3,0.41,2.7,8.2,"12:34:48",1
"17/01/07","12:50",0.0,10.0,58.0,1015.9,240.9,1.1,2.7,225.1,0.40,2.2,8.6,"12:42:56",1
"17/01/07","13:00",0.0,10.2,55.2,1015.9,216.1,1.2,2.0,226.3,0.40,1.7,8.6,"12:53:36",1
"17/01/07","13:10",0.0,10.2,56.6,1015.9,229.2,0.8,1.8,229.9,0.32,2.0,8.7,"13:04:16",1
"17/01/07","13:20",0.0,10.0,56.5,1015.9,210.0,1.3,2.4,237.9,0.29,1.8,8.8,"13:14:08",1
"17/01/07","13:30",0.0,10.4,54.2,1015.4,258.8,0.8,1.9,311.4,0.31,1.6,9.1,"13:29:04",1
"17/01/07","13:40",0.0,10.4,53.8,1015.2,261.4,1.7,3.4,236.1,0.30,1.5,9.0,"13:36:08",1
"17/01/07","13:50",0.0,10.6,54.1,1015.2,254.2,1.3,3.2,236.0,0.28,1.8,9.2,"13:42:32",1
"17/01/07","14:00",0.0,10.5,52.9,1015.2,212.8,1.0,2.5,214.6,0.25,1.3,9.2,"13:51:52",1
"17/01/07","14:10",0.0,10.7,52.8,1014.9,224.9,1.5,3.3,208.1,0.25,1.5,9.3,"14:08:16",1
"17/01/07","14:20",0.0,10.9,52.2,1014.9,220.1,1.6,2.9,210.7,0.27,1.5,9.2,"14:19:36",1
"17/01/07","14:30",0.0,10.7,51.6,1014.7,213.0,1.5,3.9,222.8,0.20,1.2,9.5,"14:20:32",1
"17/01/07","14:40",0.0,10.8,52.3,1014.5,188.8,0.8,1.7,142.2,0.19,1.5,9.3,"14:34:24",1
"17/01/07","14:50",0.0,10.6,53.0,1014.7,207.9,1.2,2.8,216.5,0.17,1.5,9.4,"14:47:44",1
"17/01/07","15:00",0.0,10.8,52.7,1014.9,209.0,1.0,2.2,226.8,0.19,1.6,9.6,"14:56:40",1
"17/01/07","15:10",0.0,10.5,52.9,1014.5,207.2,1.0,2.0,169.6,0.14,1.3,9.5,"15:01:04",1
"17/01/07","15:20",0.0,10.4,53.7,1014.2,203.7,1.0,2.0,212.3,0.11,1.5,9.5,"15:15:28",1
"17/01/07","15:30",0.0,10.2,54.6,1014.5,218.3,1.1,2.5,217.5,0.10,1.5,9.3,"15:22:40",1
"17/01/07","15:40",0.0,10.3,54.8,1014.2,224.6,0.8,2.0,212.4,0.08,1.7,9.4,"15:30:40",1
"17/01/07","15:50",0.0,10.3,54.8,1014.5,229.2,1.1,2.6,235.9,0.07,1.7,9.2,"15:48:16",1
"17/01/07","16:00",0.0,10.1,54.4,1014.5,222.6,0.7,1.6,214.8,0.05,1.4,9.3,"15:51:36",1
"17/01/07","16:10",0.0,9.9,55.5,1014.2,219.7,0.8,2.1,212.2,0.05,1.5,9.5,"16:08:00",1
"17/01/07","16:20",0.0,9.7,57.7,1014.5,237.3,1.3,2.8,241.5,0.03,1.8,9.3,"16:19:12",1
"17/01/07","16:30",0.0,9.5,58.5,1014.2,251.9,1.7,2.7,241.0,0.02,1.8,9.2,"16:23:36",1
"17/01/07","16:40",0.0,9.2,59.6,1014.2,267.3,1.2,1.9,246.8,0.00,1.8,9.1,"16:33:44",1
"17/01/07","16:50",0.0,8.9,60.6,1014.2,279.3,1.3,1.9,255.5,0.00,1.7,9.0,"16:47:20",1
"17/01/07","17:00",0.0,8.6,64.3,1014.2,311.0,2.0,3.1,325.7,0.00,2.3,8.8,"16:56:48",1
"17/01/07","17:10",0.0,8.0,68.2,1014.2,311.6,2.0,2.4,314.2,0.00,2.5,8.9,"17:06:16",1
"17/01/07","17:20",0.0,7.4,70.7,1014.0,301.4,2.2,2.7,300.9,0.00,2.5,8.8,"17:17:12",1
"17/01/07","17:30",0.0,7.1,73.2,1014.2,311.4,2.3,3.1,320.6,0.00,2.7,8.7,"17:26:16",1
"17/01/07","17:40",0.0,6.7,75.0,1014.0,306.1,2.1,2.6,326.5,0.00,2.6,8.5,"17:32:00",1
"17/01/07","17:50",0.0,6.5,76.5,1014.2,283.8,2.3,3.2,269.0,0.00,2.7,8.5,"17:47:28",1
"17/01/07","18:00",0.0,6.7,75.8,1014.0,285.9,2.5,3.1,266.4,0.00,2.8,8.4,"17:53:44",1
"17/01/07","18:10",0.0,6.6,76.0,1014.0,299.4,2.7,3.3,299.0,0.00,2.7,8.1,"18:01:20",1
"17/01/07","18:20",0.0,6.3,76.9,1014.2,281.3,1.6,2.6,296.3,0.00,2.6,8.2,"18:11:04",1
"17/01/07","18:30",0.0,6.0,78.1,1014.5,286.1,1.8,2.6,286.9,0.00,2.5,8.0,"18:27:36",1
"17/01/07","18:40",0.0,6.0,78.6,1014.7,313.5,2.0,3.5,316.1,0.00,2.6,8.2,"18:34:24",1
"17/01/07","18:50",0.0,5.8,79.0,1014.5,297.8,1.7,2.5,312.9,0.00,2.5,8.2,"18:41:36",1
"17/01/07","19:00",0.0,5.7,79.7,1014.2,287.8,1.7,2.6,318.8,0.00,2.5,8.1,"18:50:56",1
"17/01/07","19:10",0.0,5.6,80.2,1014.2,303.9,1.8,2.6,315.6,0.00,2.5,8.0,"19:02:32",1
"17/01/07","19:20",0.0,5.0,82.4,1014.2,318.2,2.5,3.1,327.3,0.00,2.3,7.7,"19:19:44",1
"17/01/07","19:30",0.0,4.8,83.6,1014.0,306.6,2.0,2.7,327.3,0.00,2.3,7.8,"19:20:16",1
"17/01/07","19:40",0.0,4.6,84.5,1014.2,279.7,1.1,2.1,309.8,0.00,2.3,7.7,"19:31:44",1
"17/01/07","19:50",0.0,4.5,85.3,1014.2,296.7,1.5,2.4,314.2,0.00,2.3,7.8,"19:48:16",1
"17/01/07","20:00",0.0,4.6,85.5,1013.8,318.4,1.8,2.6,316.1,0.00,2.4,7.7,"19:55:04",1
"17/01/07","20:10",0.0,4.6,85.6,1013.8,310.4,2.0,2.5,318.8,0.00,2.4,7.5,"20:03:20",1
"17/01/07","20:20",0.0,4.4,86.2,1013.5,313.5,2.0,2.5,313.4,0.00,2.3,7.6,"20:14:48",1
"17/01/07","20:30",0.0,4.3,87.2,1013.5,294.2,1.8,2.5,320.2,0.00,2.4,7.6,"20:23:04",1
"17/01/07","20:40",0.0,4.8,87.0,1013.8,282.7,2.0,2.7,262.5,0.00,2.9,7.4,"20:33:28",1
"17/01/07","20:50",0.0,5.0,85.6,1013.8,285.4,2.1,2.9,281.6,0.00,2.8,7.5,"20:49:52",1
"17/01/07","21:00",0.0,5.2,84.3,1013.5,311.0,3.0,3.6,322.9,0.00,2.8,7.4,"20:54:24",1
"17/01/07","21:10",0.0,5.2,83.4,1013.3,308.8,2.7,4.0,309.5,0.00,2.7,7.2,"21:06:48",1
"17/01/07","21:20",0.0,5.1,83.4,1013.5,317.0,2.7,3.6,326.6,0.00,2.6,7.2,"21:16:48",1
"17/01/07","21:30",0.0,5.1,83.5,1013.5,313.1,2.7,4.0,317.9,0.00,2.6,7.1,"21:26:56",1
"17/01/07","21:40",0.0,5.0,82.8,1013.8,320.0,2.5,3.3,332.1,0.00,2.4,7.1,"21:37:52",1
"17/01/07","21:50",0.0,4.9,83.3,1013.3,323.3,3.1,4.3,325.5,0.00,2.3,7.1,"21:48:24",1
"17/01/07","22:00",0.0,5.1,82.7,1013.3,304.9,2.7,4.7,315.6,0.00,2.4,7.0,"21:52:40",1
"17/01/07","22:10",0.0,4.9,82.2,1013.5,312.4,1.2,2.2,327.7,0.00,2.2,7.1,"22:01:52",1
"17/01/07","22:20",0.0,4.4,83.3,1013.3,300.0,1.5,2.1,318.0,0.00,1.9,6.9,"22:18:08",1
"17/01/07","22:30",0.0,4.0,85.1,1013.3,328.0,1.8,2.5,335.3,0.00,1.8,7.1,"22:23:52",1
"17/01/07","22:40",0.0,3.9,86.5,1012.8,313.9,2.1,2.9,313.3,0.00,1.9,6.9,"22:39:20",1
"17/01/07","22:50",0.0,4.2,86.5,1012.8,312.4,2.6,4.1,331.2,0.00,2.2,6.9,"22:49:44",1
"17/01/07","23:00",0.0,4.4,85.9,1013.0,320.1,3.1,4.5,308.0,0.00,2.3,6.7,"22:50:40",1
"17/01/07","23:10",0.0,4.7,84.9,1013.0,315.4,3.5,4.8,319.3,0.00,2.4,6.8,"23:01:12",1
"17/01/07","23:20",0.0,4.5,84.8,1013.0,328.2,3.0,4.7,341.4,0.00,2.2,7.1,"23:13:36",1
"17/01/07","23:30",0.0,4.3,85.4,1012.6,322.1,2.7,4.5,323.9,0.00,2.1,7.0,"23:29:04",1
"17/01/07","23:40",0.0,4.6,84.7,1012.8,307.0,3.5,4.7,304.5,0.00,2.3,6.7,"23:30:02",1
"17/01/07","23:50",0.0,4.7,84.0,1013.0,313.4,4.1,5.4,315.5,0.00,2.3,6.7,"23:40:48",1
"17/01/07","24:00",0.0,4.7,84.4,1012.8,316.1,4.0,5.2,327.2,0.00,2.3,6.7,"23:57:28",1
